Regional Weather Roundup
Issued by NWS

Home | Current Version | Previous Version | Text Only | Print | Product List | Glossary Off
Versions: 1 2 3 4 5 6 7 8 9 10 11 12 13 14 15 16 17 18 19 20 21 22 23 24 25 26 27 28 29 30 31 32 33 34 35 36 37 38 39 40 41 42 43 44 45 46 47 48 49 50

000
ASUS43 KMPX 230101
RWRMN
WEATHER ROUNDUP FOR MINNESOTA
NATIONAL WEATHER SERVICE TWIN CITIES/CHANHASSEN MN
800 PM CDT FRI AUG 22 2014


NOTE: "FAIR" INDICATES FEW OR NO CLOUDS BELOW 12,000 FEET WITH NO
SIGNIFICANT WEATHER AND/OR OBSTRUCTIONS TO VISIBILITY. N/A MEANS
CURRENT SKY AND/OR WEATHER CONDITIONS ARE NOT AVAILABLE.

MNZ060>063-068>070-230200-
   Twin Cities Metro

CITY           SKY/WX    TMP DP  RH WIND       PRES   REMARKS
TWIN CITIES    MOCLDY    75  67  76 VRB7      29.99R
ST PAUL        CLOUDY    74  68  81 N8        29.99R
CRYSTAL        CLEAR     74  66  76 NE5       29.98S
LAKEVILLE      CLOUDY    73  66  78 N6        29.99R
EDEN PRAIRIE   PTCLDY    75  68  78 NE7       29.98R
SOUTH ST PAUL  CLOUDY    75  68  77 N6        29.98R
LAKE ELMO      CLOUDY    73  70  88 N3        30.01R
$$
MNZ001>005-007-008-013>017-022>024-027-028-230200-
   Northwest Minnesota

CITY           SKY/WX    TMP DP  RH WIND       PRES   REMARKS
BEMIDJI        PTCLDY    69  67  96 CALM      30.02S
HALLOCK        CLOUDY    68  63  83 N13       30.06S
ROSEAU         PTCLDY    70  64  83 N8        30.05R
WARROAD        MOCLDY    70  66  88 N3        30.05S
THIEF RVR FALL CLOUDY    70  66  88 N9        30.04R
CROOKSTON      CLOUDY    66  66 100 N12       30.04S
FOSSTON        CLOUDY    70  66  88 NW5       30.03S
DETROIT LAKES  MOCLDY    70  66  88 NW8       30.05S
MOORHEAD       MOCLDY    70  70 100 N8        30.03S
PARK RAPIDS    PTCLDY    72  69  90 NW7       30.02S
MAHNOMEN       CLOUDY    69  66  92 NW6       30.03R
$$
MNZ006-009>011-018-025>026-230200-
   North Central Minnesota

CITY           SKY/WX    TMP DP  RH WIND       PRES   REMARKS
BAUDETTE       MOCLDY    70  66  87 N6        30.04R
FLAG ISLAND    MOCLDY    72  64  78 CALM      30.04R
INTL FALLS     PTCLDY    69  65  86 NE3       30.03R
WASKISH        CLOUDY    72  68  88 CALM      30.03R
BIG FORK       MOCLDY    72  66  83 N7        30.03S
LONGVILLE      MOCLDY    72  70  94 CALM      30.01S
GRAND RAPIDS   CLOUDY    72  66  83 CALM      30.03R
CRANE LAKE     MOCLDY    66  64  94 CALM      30.05S
ORR            CLOUDY    70  64  83 CALM      30.01S
COOK           MOCLDY    72  66  83 CALM      30.03S
WALKER         FAIR      70  66  89 CALM      30.02S
$$
MNZ012-019>021-037-230200-
   Northeast Minnesota

CITY           SKY/WX    TMP DP  RH WIND       PRES   REMARKS
DULUTH         FOG       63  60  90 E7        30.04S VSB 1
ELY            CLOUDY    70  64  83 E6        30.04F
HIBBING        CLOUDY    72  66  81 CALM      30.03R
EVELETH        MOCLDY    72  68  88 CALM      30.04S
DULUTH HARBOR  CLOUDY    63  61  94 NE10      30.04F
TWO HARBORS    CLOUDY    63  57  82 E7        30.02F
SILVER BAY     CLOUDY    61  61 100 NE6       30.03S
GRAND MARAIS     N/A     64  61  90 CALM      30.04R
G MARAIS ARPRT RAIN      63  59  88 CALM      30.09R
$$
MNZ029>031-032-039>041-046>048-054>057-064-230200-
   West Central Minnesota

CITY           SKY/WX    TMP DP  RH WIND       PRES   REMARKS
FERGUS FALLS   PTCLDY    73  64  73 N8        30.01S
WHEATON        MOCLDY    72  66  83 N7        30.02S
MORRIS         CLOUDY    75  70  83 N8        30.00R
ALEXANDRIA     MOCLDY    76  69  79 N7        30.03R
ELBOW LAKE     FAIR      73  68  84 N8        30.01S
WADENA         MOCLDY    73  68  83 CALM      30.01S
GLENWOOD       PTCLDY    77  70  78 NW7       30.02R
APPLETON       MOCLDY    79  70  73 N8        29.99R
BENSON         PTCLDY    75  70  83 N6        30.00R
ORTONVILLE     MOCLDY    75  70  83 N5        29.99S
MADISON        PTCLDY    79  72  78 N3        29.99S
WILLMAR        FAIR      77  70  78 E6        30.01R
$$
MNZ033>034-036-042>043-049>051-058-059-230200-
   Central Minnesota

CITY           SKY/WX    TMP DP  RH WIND       PRES   REMARKS
ST CLOUD       CLEAR     75  68  78 CALM      30.00R
SAUK CENTRE    FAIR      75  68  78 E5        30.01R
PAYNESVILLE    CLEAR     74  67  80 NE3       30.00R
AITKIN         MOCLDY    73  66  78 CALM      30.01R
PINE RIVER     MOCLDY    73  68  83 CALM      30.04S
BRAINERD       MOCLDY    72  68  87 CALM      30.01R
STAPLES        CLOUDY    73  66  78 CALM      30.01R
LONG PRAIRIE   MOCLDY    73  68  83 CALM      30.02R
LITTLE FALLS   PTCLDY    72  64  78 CALM      30.01R
LITCHFIELD     CLEAR     77  72  83 CALM      30.00R
BUFFALO        CLEAR     74  67  79 NE3       30.00R
MAPLE LAKE     CLEAR     74  70  87 NE3       30.00S
$$
MNZ037-044-045-052-053-230200-
   East Central Minnesota

CITY           SKY/WX    TMP DP  RH WIND       PRES   REMARKS
PRINCETON      MOCLDY    73  70  88 CALM      30.00R
MORA           CLOUDY    70  64  83 CALM      30.03R
CAMBRIDGE      PTCLDY    73  64  73 CALM      29.98S
RUSH CITY      CLOUDY    71  67  87 NE3       30.01S
MOOSE LAKE     CLOUDY    64  61  88 E5        30.02R
HINCKLEY       CLOUDY    68  64  88 N3        30.02R
CLOQUET        CLOUDY    63  61  94 E7        30.04S
MCGREGOR       MOCLDY    70  66  88 E3        30.02S
$$
MNZ071>073-080-081-089-090-097-098-230200-
   Southwest Minnesota

CITY           SKY/WX    TMP DP  RH WIND       PRES   REMARKS
MONTEVIDEO     PTCLDY    79  68  69 CALM      30.00R
GRANITE FALLS  PTCLDY    78  71  78 NW5       30.00R
CANBY          PTCLDY    79  68  70 N3        30.00S
MARSHALL       MOCLDY    79  70  73 NE5       29.99R
REDWOOD FALLS  PTCLDY    81  68  64 CALM      29.97S
OLIVIA         PTCLDY    79  68  69 CALM      29.99R
PIPESTONE      PTCLDY    79  68  69 NE3       30.01R
WINDOM         CLEAR     77  70  78 CALM      30.00R
WORTHINGTON      N/A     75  72  88 E6        30.01R
JACKSON        PTCLDY    75  70  83 NE5       30.00R
TRACY          PTCLDY    78  72  83 CALM      30.00R
SLAYTON        PTCLDY    77  71  81 CALM      30.01R
$$
MNZ065>067-074>077-082>085-091>093-230200-
   South Central Minnesota

CITY           SKY/WX    TMP DP  RH WIND       PRES   REMARKS
MANKATO        CLEAR     75  66  73 NE8       29.98S
NEW ULM        CLEAR     79  70  73 CALM      29.99R
ST JAMES       CLEAR     79  72  78 NE3       29.99R
FAIRMONT       CLEAR     70  63  78 N5        29.99R
GLENCOE        CLEAR     76  68  77 E3        29.98R
FARIBAULT      CLEAR     77  66  69 N5        29.99S
OWATONNA       CLEAR     77  70  78 N7        29.99R
WASECA         CLEAR     73  64  73 N6        30.00R
ALBERT LEA     PTCLDY    77  70  78 N3        29.98R
$$
MNZ078>079-086>088-094>096-230200-
   Southeast Minnesota

CITY           SKY/WX    TMP DP  RH WIND       PRES   REMARKS
ROCHESTER      PTCLDY    76  69  79 N6        29.99R
RED WING       CLEAR     75  68  78 N3        29.97R
STANTON        MOCLDY    75  69  80 N6        29.98R
DODGE CENTER   PTCLDY    75  72  88 N6        29.99R
WINONA         CLEAR     79  70  73 CALM      29.96R
AUSTIN         PTCLDY    77  70  78 N3        29.98R
PRESTON        PTCLDY    76  74  94 N6        29.98S
$$
ABBREVIATIONS USED IN REMARKS
   TC - TEMPERATURES IN CELSIUS
  WCI - WIND CHILL INDEX
   HX - HEAT INDEX
  VSB - VISIBILITY
$$


USA.gov is the U.S. government's official web portal to all federal, state and local government web resources and services.